Home   Weather   Prešov   Past weeks

Flag for Slovakia Past Weather in Prešov, Slovakia — Yesterday and Last 2 Weeks

Now
27 °F

Clear.


Feels Like: 23 °F
Forecast: 12 / 28 °F
Wind: 3 mph from North

Location: Kosice - Barca

Current Time: Dec 4, 2016 at 7:41:02 pm

Latest Report: Dec 4, 2016 at 7:00 pm


Visibility: 10 mi

Pressure: 30.48 "Hg

Humidity: 69%

Dew Point: 18 °F

Location of PrešovLocation

Past Weather in Prešov — Graph

°F

Prešov Temperature Yesterday

Maximum temperature yesterday: 39 °F (at 12:00 pm)
Minimum temperature yesterday: 23 °F (at 7:30 am)
Average temperature yesterday: 32 °F

High & Low Weather Summary for the Past Weeks

 TemperatureHumidityPressure
High54 °F (Nov 19, 8:30 pm)100% (Nov 22, 2:30 am)30.45 "Hg (Nov 22, 2:30 am)
Low21 °F (Dec 4, 1:30 am)35% (Nov 29, 12:30 pm)29.45 "Hg (Dec 2, 6:00 am)
Average37 °F78%30.11 "Hg
* Reported Nov 19 6:00 pm — Dec 4 6:30 pm, Prešov, Weather by CustomWeather, © 2016

Note: Actual official high and low records may vary slightly from our data, if they occured in-between our weather recording intervals... More about our weather records

Advertising

Prešov Weather History for the Previous 24 Hours

Scroll right to see more
 ConditionsComfort  
Time TempWeatherWind HumidityBarometerVisibility
6:30 pm
Sun, Dec 4
27 °FClear.2 mph74%30.45 "Hg10 mi
6:00 pm27 °FClear.1 mph74%30.45 "Hg10 mi
5:30 pm27 °FClear.1 mph80%30.45 "Hg10 mi
5:00 pm30 °FClear.3 mph69%30.45 "Hg10 mi
4:30 pm30 °FClear.1 mph64%30.42 "Hg10 mi
4:00 pm30 °FClear.3 mph64%30.42 "Hg10 mi
3:30 pm34 °FSunny.2 mph60%30.42 "Hg10 mi
3:00 pm34 °FSunny.3 mph60%30.42 "Hg10 mi
2:30 pm36 °FSunny.3 mph56%30.42 "Hg10 mi
2:00 pm36 °FPassing clouds.3 mph60%30.42 "HgN/A
1:30 pm36 °FPassing clouds.3 mph60%30.39 "HgN/A
1:00 pm36 °FPassing clouds.3 mph60%30.39 "HgN/A
12:30 pm36 °FPassing clouds.3 mph48%30.39 "HgN/A
12:00 pm36 °FPassing clouds.3 mph48%30.39 "HgN/A
11:30 am34 °FSunny.2 mph56%30.39 "Hg10 mi
11:00 am32 °FPassing clouds.3 mph60%30.39 "HgN/A
10:30 am30 °FSunny.3 mph69%30.39 "Hg10 mi
10:00 am28 °FSunny.5 mph74%30.39 "Hg10 mi
9:30 am28 °FSunny.3 mph74%30.39 "Hg10 mi
9:00 am27 °FSunny.3 mph80%30.39 "Hg10 mi
8:30 am25 °FSunny.1 mph80%30.39 "Hg10 mi
8:00 am25 °FSunny.2 mph74%30.36 "Hg10 mi
7:30 am23 °FSunny.3 mph80%30.36 "Hg10 mi
7:00 am23 °FPassing clouds.5 mph74%30.36 "HgN/A
6:30 am23 °FClear.5 mph80%30.33 "Hg10 mi
6:00 am23 °FPassing clouds.3 mph80%30.33 "HgN/A
5:30 am23 °FClear.1 mph80%30.33 "Hg10 mi
5:00 am23 °FClear.6 mph80%30.33 "Hg10 mi
4:30 am23 °FClear.3 mph80%30.33 "Hg10 mi
4:00 am23 °FClear.6 mph80%30.33 "Hg10 mi
3:30 am23 °FClear.5 mph86%30.33 "Hg10 mi
3:00 am23 °FClear.5 mph80%30.30 "Hg10 mi
2:30 am23 °FClear.3 mph80%30.33 "Hg10 mi
2:00 am23 °FClear.2 mph86%30.33 "Hg10 mi
1:30 am21 °FClear.2 mph80%30.33 "Hg10 mi
1:00 am23 °FClear.1 mph74%30.33 "Hg10 mi
12:30 am23 °FClear.1 mph80%30.33 "Hg10 mi
12:00 am25 °FPassing clouds.3 mph80%30.30 "HgN/A
11:30 pm
Sat, Dec 3
23 °FClear.2 mph86%30.30 "Hg10 mi
11:00 pm25 °FClear.3 mph80%30.30 "Hg10 mi
10:30 pm23 °FClear.2 mph80%30.30 "Hg10 mi
10:00 pm27 °FClear.2 mph74%30.30 "Hg10 mi
9:30 pm25 °FClear.2 mph80%30.30 "Hg10 mi
9:00 pm27 °FPassing clouds.3 mph74%30.27 "HgN/A
8:30 pm27 °FClear.1 mph80%30.27 "Hg10 mi
8:00 pm27 °FClear.2 mph74%30.27 "Hg10 mi
7:30 pm30 °FClear.3 mph64%30.27 "Hg10 mi
7:00 pm30 °FPassing clouds.3 mph64%30.24 "HgN/A
Weather by CustomWeather, © 2016

See weather overviewHow to use our weather pages